Location: Ceske Budejovice
(48.9830°N, 14.4670°E)
Time: 15:44:50
(UTC+02:00)

ATV-4 - Visible Passes

Search period start: 19 September 2024 00:00
Search period end: 29 September 2024 00:00
Orbit: 308 x 318 km, 51.6° (Epoch: 02 November)

Date Brightness Start Highest point End Pass type
(mag) Time Alt. Az. Time Alt. Az. Time Alt. Az.
19 Sep 6.8 00:42:55 10° W 02:26:34 89° SSW 02:55:04 10° ESE visible
19 Sep 6.2 06:08:31 10° NW 06:53:48 31° W 07:10:54 10° SSW visible
19 Sep 7.3 21:09:22 10° SW 22:47:11 88° SSE 23:43:22 10° ENE visible
20 Sep 6.4 02:18:43 10° WNW 03:48:42 78° SW 04:10:51 10° SE visible
20 Sep 7.6 18:03:07 10° S 19:19:12 54° ESE 20:27:34 10° NE visible
20 Sep 7.1 22:33:47 10° WSW 00:20:21 86° N 01:02:20 10° E visible
21 Sep 6.1 03:56:30 10° WNW 05:07:44 60° WSW 05:26:09 10° SSE visible
21 Sep 7.5 19:18:14 10° SSW 20:43:27 69° ESE 21:49:19 10° ENE visible
22 Sep 6.9 00:04:44 10° W 01:50:41 87° NNE 02:21:03 10° ESE visible
22 Sep 6.2 05:33:02 10° NW 06:24:27 41° WSW 06:40:38 10° S visible
22 Sep 7.3 20:37:57 10° SSW 22:13:37 82° SE 23:10:39 10° ENE visible
23 Sep 6.4 01:42:42 10° W 03:16:50 86° SSW 03:39:28 10° SE visible
23 Sep 7.6 17:39:21 10° SSE 18:54:49 45° E 19:56:47 10° NE visible
23 Sep 7.1 22:02:48 10° SW 23:47:41 89° NNW 00:31:49 10° E visible
24 Sep 6.0 03:24:23 10° WNW 04:39:34 71° SW 04:57:31 10° SSE visible
24 Sep 7.5 18:53:53 10° S 20:18:48 61° ESE 21:20:50 10° NE visible
24 Sep 7.0 23:34:20 10° WSW 01:20:57 85° N 01:52:52 10° E visible
25 Sep 5.9 05:04:43 10° NW 05:59:42 51° WSW 06:14:59 10° S visible
25 Sep 7.3 20:13:55 10° SSW 21:48:30 76° SE 22:44:16 10° ENE visible
26 Sep 6.5 01:13:52 10° W 02:50:35 89° NNE 03:13:45 10° ESE visible
26 Sep 7.6 17:23:41 10° SE 18:36:53 38° E 19:32:09 10° NE visible
26 Sep 7.2 21:39:25 10° SW 23:22:50 87° SSE 00:07:31 10° ENE visible
27 Sep 6.0 02:59:06 10° WNW 04:16:40 80° SW 04:34:22 10° SE visible
27 Sep 7.5 18:36:52 10° S 20:01:13 54° ESE 20:58:40 10° NE visible
27 Sep 7.0 23:11:43 10° WSW 00:57:59 86° N 01:30:44 10° E visible
28 Sep 5.7 04:43:23 10° WNW 05:40:01 60° WSW 05:54:34 10° SSE visible
28 Sep 7.3 19:57:05 10° SSW 21:31:04 69° SE 22:24:12 10° ENE visible
